Flag for Ireland Weather past 2 weeks in Dublin, Ireland

Now
37 °F

Passing clouds.


Feels Like: 31 °F
Forecast: 36 / 52 °F
Wind: 9 mph from West

Location: Dublin Airport

Current Time: Mar 27, 2015 at 12:09:04 AM

Latest Report: Mar 26, 2015 at 11:30 PM


Visibility: N/A

Pressure: 30.04 "Hg

Humidity: 87%

Dew point: 34 °F

Location of DublinLocation

Historic Weather in Dublin — Graph

°F

Dublin temperature yesterday

Maximum temperature yesterday: 50 °F (at 2:00 PM)
Minimum temperature yesterday: 36 °F (at 10:30 PM)
Average temperature yesterday: 44 °F

Past Weeks' High & Low Weather Summary

 TemperatureHumidityPressure
High55 °F (Mar 22, 3:00 PM)100% (Mar 12, 5:00 AM)30.60 "Hg (Mar 12, 5:00 AM)
Low25 °F (Mar 18, 5:30 AM)50% (Mar 13, 3:30 PM)29.39 "Hg (Mar 26, 1:30 AM)
Average41 °F83%30.23 "Hg
* Reported Mar 11 11:00 PM — Mar 26 11:00 PM, Dublin, Weather by CustomWeather, © 2015

Note: Actual official high and low records may vary slightly from our data, if they occured in-between our weather recording intervals... More about our weather records

Advertising

Dublin weather history for previous 24 hours

 ConditionsComfort  
Time TempWeatherWind HumidityBarometerVisibility
11:00 PM
Thu, Mar 26
37 °FPassing clouds.10 mph87%30.04 "HgN/A
10:30 PM36 °FPassing clouds.10 mph87%30.04 "HgN/A
10:00 PM37 °FPassing clouds.10 mph81%30.01 "HgN/A
9:30 PM37 °FPassing clouds.12 mph81%29.98 "HgN/A
9:00 PM41 °FPassing clouds.10 mph70%29.98 "HgN/A
8:30 PM39 °FPassing clouds.9 mph75%29.98 "HgN/A
8:00 PM37 °FPassing clouds.9 mph81%29.95 "HgN/A
7:30 PM41 °FPassing clouds.10 mph70%29.95 "HgN/A
7:00 PM43 °FPassing clouds.13 mph66%29.92 "HgN/A
6:30 PM43 °FScattered clouds.14 mph71%29.92 "HgN/A
6:00 PM46 °FScattered clouds.17 mph62%29.89 "HgN/A
5:30 PM46 °FPartly sunny.16 mph66%29.89 "HgN/A
5:00 PM46 °FScattered clouds.17 mph62%29.86 "HgN/A
4:30 PM46 °FScattered clouds.17 mph66%29.86 "HgN/A
4:00 PM48 °FSprinkles. Scattered clouds.18 mph66%29.83 "HgN/A
3:30 PM50 °FScattered clouds.20 mph50%29.83 "HgN/A
3:00 PM50 °FScattered clouds.23 mph54%29.80 "HgN/A
2:30 PM48 °FScattered clouds.24 mph62%29.80 "HgN/A
2:00 PM50 °FScattered clouds.24 mph58%29.77 "HgN/A
1:30 PM48 °FScattered clouds.25 mph58%29.74 "HgN/A
1:00 PM48 °FScattered showers. Scattered clouds.26 mph62%29.74 "HgN/A
12:30 PM45 °FSprinkles. Scattered clouds.28 mph81%29.74 "HgN/A
12:00 PM48 °FScattered showers. Scattered clouds.25 mph66%29.71 "HgN/A
11:30 AM48 °FSprinkles. Broken clouds.25 mph62%29.71 "HgN/A
11:00 AM48 °FBroken clouds.26 mph62%29.68 "HgN/A
10:30 AM46 °FBroken clouds.28 mph66%29.68 "HgN/A
10:00 AM46 °FScattered clouds.25 mph71%29.65 "HgN/A
9:30 AM46 °FBroken clouds.23 mph82%29.65 "HgN/A
9:00 AM45 °FSprinkles. Broken clouds.23 mph81%29.62 "HgN/A
8:30 AM45 °FBroken clouds.21 mph87%29.59 "HgN/A
8:00 AM45 °FPartly sunny.22 mph87%29.59 "HgN/A
7:30 AM45 °FScattered clouds.17 mph87%29.56 "HgN/A
7:00 AM43 °FPassing clouds.16 mph93%29.53 "HgN/A
6:30 AM45 °FPassing clouds.18 mph87%29.50 "HgN/A
6:00 AM45 °FScattered showers. Partly cloudy.21 mph93%29.47 "HgN/A
5:30 AM45 °FLight rain. Partly cloudy.20 mph93%29.47 "HgN/A
5:00 AM45 °FLight rain. Partly cloudy.18 mph93%29.45 "HgN/A
4:30 AM46 °FLight rain. Partly cloudy.20 mph87%29.42 "HgN/A
4:00 AM46 °FLight rain. Partly cloudy.23 mph93%29.42 "HgN/A
3:30 AM46 °FLight rain. Partly cloudy.18 mph93%29.39 "HgN/A
3:00 AM46 °FLight rain. Partly cloudy.20 mph93%29.39 "HgN/A
2:30 AM45 °FLight rain. Partly cloudy.18 mph100%29.39 "HgN/A
2:00 AM45 °FLight rain. Partly cloudy.22 mph100%29.39 "HgN/A
1:30 AM45 °FLight rain. Passing clouds.9 mph93%29.39 "HgN/A
1:00 AM41 °FLight rain. Partly cloudy.10 mph100%29.42 "Hg6 mi
12:30 AM41 °FPartly cloudy.15 mph93%29.42 "Hg6 mi
12:00 AM41 °FLight rain. Partly cloudy.17 mph93%29.45 "HgN/A
Weather by CustomWeather, © 2015

See weather overviewHow to use our weather pages